• Join FlightAware (Why Join?)
  • Login
  • US Flag 
03:35PM EDT


 

Airport Tracker/Info


-or-


 

Live Flight TrackerFlight Track Log ✈ EGF4218 ✈ 29-Apr-2013 ✈ KORD - KTUL

Flight Track Log - Related Links

Times and Time Zones

All times are in EDT time to prevent confusion due to time zone crossing. See the EGF4218 flight status page for this flight to view local times or setup timezone preferences in your user account.

Time Position Orientation Groundspeed Altitude Reporting Facility
EDT Latitude Longitude Course Direction KTS MPH feet Rate Location/Type
10:31AM 41.9833 -88.0000 194° South 205 236 3,300  Level Chicago TRACON
10:32AM 41.8495 -88.1145 206° Southwest  Level Estimated
10:32AM 41.9333 -88.0333 206° Southwest 234 269 4,800  Level Chicago TRACON
10:33AM 41.7833 -88.2180 203° Southwest  Level Estimated
10:33AM 41.8494 -88.0306 179° South 241 277 5,000  Level Chicago Center
10:34AM 41.7170 -88.3214 197° South  Level Estimated
10:34AM 41.7639 -88.0203 175° South 255 293 6,900  Level Chicago Center
10:35AM 41.6243 -88.2652 156° South  Level FlightAware Approximate
10:35AM 41.6889 -88.0231 182° South 272 313 9,200  Level Chicago Center
10:36AM 41.5597 -88.3681 194° South  Level Estimated
10:36AM 41.6200 -88.0633 204° Southwest 270 311 11,400  Level Chicago Center
10:37AM 41.5494 -88.1028 203° Southwest 277 319 13,000 1,680 Climbing Chicago Center
10:39AM 41.4589 -88.1511 202° Southwest 297 342 14,900 1,500 Climbing Chicago Center
10:40AM 41.3803 -88.1936 202° Southwest 315 362 16,100 1,080 Climbing Chicago Center
10:41AM 41.2931 -88.2311 198° South 330 380 17,200 960 Climbing Chicago Center
10:42AM 41.2014 -88.2725 199° South 341 392 18,200 1,140 Climbing Chicago Center
10:43AM 41.0856 -88.3258 199° South 363 418 19,600 1,380 Climbing Chicago Center
10:44AM 40.9886 -88.3697 199° South 369 425 21,100 1,440 Climbing Chicago Center
10:45AM 40.8917 -88.4122 198° South 369 425 22,600 1,440 Climbing Chicago Center
10:46AM 40.7961 -88.4561 199° South 367 422 24,100 1,260 Climbing Chicago Center
10:47AM 40.7006 -88.4981 198° South 365 420 25,300 1,020 Climbing Chicago Center
10:48AM 40.6022 -88.5414 199° South 372 428 26,300 1,080 Climbing Chicago Center
10:49AM 40.4847 -88.5947 199° South 374 430 27,600 1,020 Climbing Chicago Center
10:50AM 40.3964 -88.6322 198° South 378 435 28,500 960 Climbing Chicago Center
10:51AM 40.3050 -88.6922 207° Southwest 376 433 29,700 1,200 Climbing Chicago Center
10:52AM 40.2303 -88.8144 231° Southwest 360 414 31,000 1,080 Climbing Chicago Center
10:53AM 40.1689 -88.9189 232° Southwest 361 415 32,000 960 Climbing Chicago Center
10:54AM 40.1067 -89.0244 232° Southwest 364 419 33,000 1,020 Climbing Chicago Center
10:55AM 40.0539 -89.1086 231° Southwest 364 419 33,900 1,020 Climbing Kansas City Center
10:56AM 39.9908 -89.2150 232° Southwest 368 423 34,900 960 Climbing Kansas City Center
10:57AM 39.9286 -89.3186 232° Southwest 364 419 35,900 480 Climbing Kansas City Center
10:58AM 39.8664 -89.4222 232° Southwest 363 418 36,000  Climbing Kansas City Center
10:59AM 39.8000 -89.5311 232° Southwest 376 433 36,000  Level Kansas City Center
11:00AM 39.7328 -89.6439 232° Southwest 388 447 36,000  Level Kansas City Center
11:01AM 39.6544 -89.7708 231° Southwest 391 450 36,000  Level Kansas City Center
11:02AM 39.5881 -89.8817 232° Southwest 391 450 36,000  Level Kansas City Center
11:03AM 39.5197 -89.9925 231° Southwest 393 452 36,000  Level Kansas City Center
11:04AM 39.4531 -90.1017 232° Southwest 391 450 36,000  Level Kansas City Center
11:05AM 39.3853 -90.2111 231° Southwest 391 450 36,000  Level Kansas City Center
11:06AM 39.3042 -90.3428 232° Southwest 392 451 36,000  Level Kansas City Center
11:07AM 39.2361 -90.4511 231° Southwest 391 450 36,000  Level Kansas City Center
11:08AM 39.1692 -90.5592 231° Southwest 390 449 36,000  Level Kansas City Center
11:09AM 39.1014 -90.6667 231° Southwest 390 449 36,000  Level Kansas City Center
11:10AM 39.0356 -90.7719 231° Southwest 385 443 36,000  Level Kansas City Center
11:11AM 38.9553 -90.9008 227° Southwest 388 447 36,000  Level Kansas City Center
11:12AM 38.9531 -90.8840 227° Southwest  Level FlightAware Approximate
11:12AM 38.8892 -91.0083 232° Southwest 388 447 36,000  Level Kansas City Center
11:13AM 38.8336 -91.1250 239° Southwest 388 447 36,000  Level Kansas City Center
11:14AM 38.7786 -91.2400 238° Southwest 383 441 36,000  Level Kansas City Center
11:15AM 38.7208 -91.3550 237° Southwest 385 443 36,000  Level Kansas City Center
11:16AM 38.6575 -91.4808 237° Southwest 383 441 36,000  Level Kansas City Center
11:18AM 38.6017 -91.5956 238° Southwest 380 437 36,000  Level Kansas City Center
11:19AM 38.5317 -91.7319 237° Southwest 381 438 36,000  Level Kansas City Center
11:20AM 38.4728 -91.8453 236° Southwest 382 440 36,000  Level Kansas City Center
11:21AM 38.4156 -91.9600 238° Southwest 383 441 36,000  Level Kansas City Center
11:22AM 38.3569 -92.0733 237° Southwest 383 441 36,000  Level Kansas City Center
11:23AM 38.2981 -92.1872 237° Southwest 385 443 36,000  Level Kansas City Center
11:24AM 38.2400 -92.2994 237° Southwest 383 441 36,000  Level Kansas City Center
11:25AM 38.1781 -92.4219 237° Southwest 384 442 36,000  Level Kansas City Center
11:26AM 38.1194 -92.5361 237° Southwest 387 445 36,000  Level Kansas City Center
11:27AM 38.0603 -92.6511 237° Southwest 389 448 36,000  Level Kansas City Center
11:28AM 37.9947 -92.7728 236° Southwest 387 445 36,000  Level Kansas City Center
11:29AM 37.9356 -92.8858 236° Southwest 386 444 36,000  Level Kansas City Center
11:30AM 37.8642 -93.0222 236° Southwest 387 445 36,000  Level Kansas City Center
11:31AM 37.8042 -93.1353 236° Southwest 386 444 36,000  Level Kansas City Center
11:32AM 37.7453 -93.2475 236° Southwest 385 443 36,000  Level Kansas City Center
11:33AM 37.6858 -93.3603 236° Southwest 385 443 36,000  Level Kansas City Center
11:34AM 37.6256 -93.4753 237° Southwest 391 450 36,000  Level Kansas City Center
11:35AM 37.5642 -93.5886 236° Southwest 391 450 36,000  Level Kansas City Center
11:36AM 37.5036 -93.7025 236° Southwest 391 450 36,000  Level Kansas City Center
11:37AM 37.4297 -93.8394 236° Southwest 393 452 36,000  Level Kansas City Center
11:38AM 37.3681 -93.9536 236° Southwest 394 453 36,000 -60 Level Kansas City Center
11:39AM 37.3069 -94.0672 236° Southwest 392 451 35,900 -480 Descending Kansas City Center
11:40AM 37.2483 -94.1772 236° Southwest 388 447 35,000 -960 Descending Kansas City Center
11:41AM 37.1886 -94.2856 235° Southwest 381 438 34,000 -1,020 Descending Kansas City Center
11:42AM 37.1292 -94.3942 236° Southwest 377 434 33,000 -1,080 Descending Kansas City Center
11:43AM 37.0553 -94.5289 236° Southwest 388 447 31,800 -1,020 Descending Kansas City Center
11:44AM 36.9914 -94.6431 235° Southwest 397 457 31,000 -1,260 Descending Kansas City Center
11:45AM 36.9281 -94.7567 235° Southwest 398 458 29,300 -2,280 Descending Kansas City Center
11:46AM 36.8653 -94.8667 235° Southwest 391 450 26,300 -3,060 Descending Kansas City Center
11:47AM 36.8064 -94.9714 235° Southwest 391 450 23,500 -3,120 Descending Kansas City Center
11:48AM 36.7503 -95.0706 235° Southwest 388 447 20,800 -2,640 Descending Kansas City Center
11:49AM 36.7433 -95.0858 240° Southwest 385 443 20,400 -2,880 Descending Kansas City Center
11:49AM 36.6908 -95.1781 235° Southwest 375 432 17,900 -3,240 Descending Kansas City Center
11:50AM 36.6731 -95.2117 237° Southwest 372 428 17,100 -2,520 Descending Kansas City Center
11:50AM 36.6261 -95.2731 226° Southwest 359 413 15,400 -2,460 Descending Kansas City Center
11:51AM 36.6042 -95.3019 227° Southwest 362 417 14,600 -2,580 Descending Kansas City Center
11:51AM 36.5533 -95.3769 230° Southwest 367 422 12,800 -2,460 Descending Kansas City Center
11:52AM 36.5417 -95.4014 239° Southwest 369 425 12,100 -2,340 Descending Kansas City Center
11:53AM 36.4972 -95.4989 240° Southwest 359 413 10,000 -1,680 Descending Kansas City Center
11:54AM 36.4544 -95.5853 238° Southwest 270 311 9,000 -1,560 Descending Kansas City Center
11:54AM 36.4208 -95.6572 240° Southwest 252 290 7,100 -2,100 Descending Kansas City Center
11:55AM 36.4094 -95.6817 240° Southwest 268 308 6,500 -2,100 Descending Kansas City Center
11:55AM 36.3867 -95.7242 236° Southwest 244 281 5,200 -1,980 Descending Kansas City Center
11:56AM 36.3750 -95.7519 242° Southwest 250 288 4,500 -1,320 Descending Kansas City Center
11:56AM 36.3550 -95.7933 239° Southwest 224 258 3,900 -1,080 Descending Kansas City Center